Temp
33 32 32 34 31 28 29 29 27 28 32 30 24 22 24 23 21 22 23 24 28 30 32 34 34 33 33 33 33 33 32 32 32 31 31 31 31 31 31 31 30 30 29 29 28 28 27 26 26 25 25 24 24 23 23 23 22 22 22 21 21 21 20
32 33 33 34 33 31 29 26 28 31 33 31 26 22 22 22 20 22 23 23 25 25 27 32 35 33 33 33 33 33 32 31 31 31 31 31 31 31 31 31 31 30 30 29 29 28 27 27 26 26 25 24 24 24 23 23 22 22 22 22 21 21 20
31 33 32 30 32 33 31 29 32 31 26 25 25 22 21 21 20 21 23 23 24 23 25 31 34 33 33 33 33 34 33 31 31 31 32 31 32 31 31 31 31 30 30 29 29 28 28 27 26 26 25 25 24 24 24 23 23 23 22 22 22 21 21
32 32 30 27 28 32 32 32 33 31 27 25 24 24 23 22 20 21 22 22 23 26 30 32 33 34 34 33 33 34 34 32 31 32 32 32 32 31 31 31 30 30 30 30 29 28 28 27 27 26 25 25 25 24 24 24 23 23 22 22 22 21 21
31 28 29 28 28 29 30 28 28 28 29 28 26 26 25 23 21 21 21 21 22 29 34 35 34 34 34 34 33 33 34 33 32 32 32 32 32 32 31 31 30 30 30 30 29 29 28 27 27 26 26 25 25 25 24 24 23 23 22 22 22 21 21
27 28 32 32 31 31 30 28 27 27 27 26 24 23 24 25 23 22 22 21 23 31 35 35 36 35 34 34 33 33 34 33 33 33 33 32 32 32 31 31 30 30 30 30 29 28 28 27 27 26 26 26 25 25 24 24 24 23 23 22 22 22 21
28 31 34 33 32 33 32 30 30 30 29 26 22 21 23 24 24 24 23 21 24 33 35 34 35 36 34 34 33 33 33 34 34 34 33 33 32 32 32 31 30 30 30 30 29 28 28 27 27 27 26 26 25 25 24 24 24 23 23 22 22 22 21
30 31 33 33 33 33 31 30 31 31 29 28 26 26 26 24 23 24 23 21 24 33 36 34 34 35 34 33 33 33 33 34 35 34 33 33 33 32 32 31 31 30 30 30 29 28 28 28 27 27 26 26 25 25 25 24 24 24 23 23 22 22 22
24 26 27 29 30 31 30 30 31 31 31 31 29 28 27 25 23 24 23 21 24 32 36 35 34 34 35 35 34 34 34 34 35 35 34 33 33 32 32 31 30 30 30 29 29 28 28 28 27 27 26 26 26 25 25 25 24 24 23 23 22 22 22
20 21 22 24 26 28 30 30 31 31 31 31 28 26 24 22 23 24 23 22 26 32 35 35 35 34 35 36 35 34 35 35 35 35 33 33 32 32 31 31 31 31 30 30 29 29 28 28 27 27 27 26 26 26 25 25 25 24 24 23 22 22 22
22 22 24 28 29 28 27 28 30 31 31 32 29 25 22 23 23 23 24 25 26 29 32 34 34 34 34 36 35 32 33 33 34 34 33 32 32 32 31 31 31 31 31 30 30 29 29 28 28 28 27 27 26 26 26 25 25 24 24 23 23 22 22
26 27 28 31 31 28 27 28 29 30 31 31 29 25 25 26 24 21 25 28 26 28 32 33 33 33 34 36 35 32 31 32 32 32 32 31 31 31 31 31 31 32 31 31 30 30 29 29 28 28 27 27 26 26 26 25 25 24 24 24 23 22 22
28 30 30 31 31 30 30 30 29 30 30 30 28 27 28 29 24 23 27 28 27 29 33 33 33 34 34 34 35 34 33 33 31 30 30 31 30 30 30 31 31 32 31 31 30 30 29 29 28 28 27 27 26 26 26 25 25 25 24 24 23 23 22
27 29 30 30 31 29 30 31 31 31 31 30 29 29 31 30 28 28 29 29 29 31 33 33 33 34 34 34 35 35 34 32 31 30 30 30 30 30 30 31 32 32 32 31 30 30 30 29 28 28 27 27 27 26 26 26 25 25 25 24 24 23 23
26 29 30 30 30 29 28 29 31 32 31 30 30 30 31 30 28 30 31 28 29 31 33 34 33 32 34 34 34 34 35 33 31 31 30 31 31 30 30 31 32 32 32 32 31 31 30 29 29 28 28 27 27 27 26 26 26 25 25 25 24 24 23
23 27 29 29 30 29 27 27 29 30 30 29 30 30 31 30 28 29 28 26 28 31 33 34 33 32 33 34 32 32 34 34 32 31 31 31 31 31 32 32 32 33 33 32 32 31 31 30 30 29 28 28 27 27 27 26 26 26 25 25 25 24 24
21 26 28 28 28 25 23 25 29 30 30 31 31 31 32 32 31 29 26 27 30 32 32 33 34 33 33 33 31 32 34 34 33 32 32 32 31 32 33 33 33 33 33 32 32 31 31 31 30 30 29 28 28 27 27 27 26 26 26 26 25 25 24
21 25 27 27 24 21 22 28 31 31 31 31 31 31 31 32 32 31 30 31 32 32 32 33 33 33 33 33 33 34 35 35 34 34 33 32 32 31 32 33 33 33 32 32 32 32 32 31 31 30 30 29 28 28 27 27 27 26 26 26 26 25 25
22 24 25 22 20 22 27 31 32 31 31 32 31 31 32 32 31 31 32 32 32 31 31 31 30 30 32 33 33 34 34 34 35 35 35 34 33 32 32 33 33 32 32 32 32 33 32 32 31 30 30 29 29 28 28 27 27 27 26 26 26 26 25
22 22 21 19 21 25 29 31 31 31 31 31 30 29 30 30 29 29 30 29 30 29 28 27 27 29 31 32 33 33 34 34 34 34 35 35 34 33 33 32 32 32 32 32 32 33 33 32 31 31 30 30 29 28 28 27 27 27 27 27 26 26 26
23 20 20 21 23 24 26 28 30 30 29 29 28 26 27 28 28 28 29 27 27 28 27 26 28 29 31 31 31 32 33 33 33 33 34 34 34 34 34 33 32 32 32 32 32 32 32 32 32 31 31 30 29 28 28 27 27 27 27 27 27 27 26
22 21 20 21 21 21 24 27 29 30 28 28 29 26 25 26 27 27 27 26 26 26 26 26 27 29 30 29 28 28 29 30 31 31 32 33 34 34 34 34 33 33 32 32 32 32 32 31 31 31 31 30 29 28 28 28 27 27 27 27 27 27 27
21 20 19 20 20 21 25 28 30 30 28 29 29 26 22 24 26 25 25 24 24 24 25 25 26 28 28 26 25 25 27 28 29 29 30 32 33 34 34 34 34 34 33 33 33 33 32 31 31 31 30 30 30 29 28 28 28 27 27 27 27 27 27
20 19 19 20 21 23 26 28 29 29 29 29 27 22 20 24 25 23 22 22 22 22 22 23 23 25 25 23 23 24 26 27 28 29 30 30 31 32 34 34 33 33 33 33 33 33 33 33 32 31 30 30 29 29 29 28 28 28 28 27 28 28 28
19 19 19 20 22 24 26 26 27 28 28 27 23 20 22 23 22 21 21 21 21 21 21 21 22 22 22 22 23 25 26 27 28 29 29 30 30 30 31 32 33 33 33 33 33 33 33 33 32 31 30 29 29 29 29 28 28 28 28 28 28 27 28
18 19 19 19 20 24 25 25 25 26 25 23 21 21 22 22 20 20 20 20 21 21 20 20 21 21 21 22 23 24 26 26 27 27 28 29 30 30 29 30 31 32 32 32 32 32 33 33 32 31 30 30 29 29 29 29 29 29 28 28 27 27 27
18 18 18 18 19 23 26 25 24 23 22 21 21 21 20 20 20 19 19 19 20 20 20 19 19 19 20 21 21 22 24 25 25 25 26 27 28 29 29 29 29 29 30 30 30 29 30 30 31 30 29 29 29 29 28 29 29 28 28 27 27 27 26
16 16 17 17 18 22 25 25 23 22 21 21 21 20 19 19 19 18 18 18 19 19 19 19 19 19 19 19 19 20 22 23 24 24 25 26 27 27 28 29 28 28 28 28 28 28 28 28 28 27 27 27 27 28 29 29 28 28 27 27 26 26 25
15 16 16 17 17 18 21 23 22 21 21 20 19 19 18 18 18 17 17 17 18 18 19 19 19 19 18 18 18 19 20 21 22 23 23 24 25 26 27 28 29 28 28 28 27 27 27 27 27 27 26 25 24 25 27 28 27 26 25 25 24 23 23
16 17 16 16 15 15 18 21 21 20 19 19 19 18 17 17 17 17 17 16 17 18 19 19 18 17 17 17 18 18 19 20 21 22 22 23 24 25 25 27 28 28 28 29 28 27 27 27 26 26 26 25 23 22 23 25 26 25 23 22 21 21 21
15 16 16 16 15 14 15 18 20 19 19 18 18 18 17 17 17 17 17 17 17 17 18 18 17 17 17 17 17 17 18 19 19 20 21 22 23 24 24 25 25 25 26 27 27 27 26 25 25 25 25 24 22 20 20 22 23 23 22 21 20 20 20
15 16 16 15 15 15 15 17 19 19 18 18 18 17 17 17 17 16 17 17 17 17 17 17 17 17 17 17 17 17 17 17 18 18 19 20 21 22 22 23 24 24 23 24 24 25 24 23 22 23 23 22 20 19 19 19 20 21 21 21 21 21 20
14 15 15 15 16 16 15 16 18 18 18 18 17 17 17 17 16 16 16 16 16 16 16 16 17 17 17 17 17 17 17 17 17 18 18 18 19 19 19 21 22 22 22 21 22 23 22 21 20 20 21 21 20 19 18 17 17 18 19 20 21 21 19
14 15 14 14 14 15 15 15 16 17 17 17 17 16 16 16 16 16 16 15 16 16 16 16 16 16 17 17 17 17 17 17 17 17 17 18 18 19 19 19 19 20 20 20 21 21 20 20 19 18 19 20 19 17 17 17 16 16 17 18 19 19 18
13 14 13 13 13 14 14 14 15 16 16 16 16 16 16 16 15 16 16 15 15 16 16 16 16 16 16 16 17 17 17 17 17 17 17 17 18 19 19 19 19 19 19 18 19 19 19 19 19 19 19 19 18 17 17 17 16 16 17 18 19 18 18
12 13 13 13 13 14 14 14 14 15 15 15 15 15 15 15 15 15 16 15 15 15 16 16 16 16 16 16 16 16 17 17 17 17 17 17 17 18 18 19 19 19 19 19 18 18 18 19 19 19 19 20 19 18 18 17 17 17 18 18 19 18 18
12 13 13 13 13 13 13 13 14 14 14 15 15 15 15 15 15 15 15 15 15 15 15 16 16 16 16 16 16 16 16 16 17 17 17 17 17 17 18 19 18 17 18 19 18 17 17 18 19 19 19 19 19 19 18 18 18 18 18 18 19 19 19
Height
1388 1393 1392 1390 1403 1415 1413 1414 1420 1413 1409 1422 1441 1446 1438 1441 1456 1449 1435 1433 1422 1413 1409 1398 1396 1401 1399 1401 1403 1405 1409 1413 1417 1423 1426 1431 1434 1436 1439 1441 1444 1448 1450 1453 1456 1458 1461 1465 1468 1470 1473 1477 1479 1482 1486 1489 1493 1496 1499 1502 1505 1508 1511
1387 1382 1388 1387 1389 1399 1411 1417 1413 1408 1413 1418 1430 1447 1448 1451 1462 1449 1432 1434 1430 1427 1424 1407 1399 1405 1403 1400 1400 1401 1404 1407 1413 1418 1422 1425 1428 1431 1433 1436 1440 1443 1445 1448 1450 1453 1456 1459 1462 1465 1470 1474 1477 1480 1482 1485 1489 1492 1495 1498 1501 1505 1508
1385 1377 1388 1396 1389 1388 1400 1405 1401 1409 1426 1428 1427 1441 1450 1456 1462 1450 1436 1433 1428 1426 1423 1409 1404 1405 1402 1399 1398 1399 1402 1403 1407 1411 1415 1419 1422 1426 1429 1431 1435 1437 1439 1443 1445 1448 1452 1455 1458 1462 1467 1472 1475 1478 1480 1482 1485 1488 1491 1495 1498 1501 1504
1380 1380 1389 1401 1400 1392 1393 1397 1397 1401 1412 1419 1422 1427 1433 1445 1454 1450 1443 1437 1427 1415 1406 1402 1401 1398 1395 1397 1396 1396 1396 1397 1401 1405 1409 1413 1416 1420 1423 1426 1428 1431 1434 1437 1440 1444 1447 1451 1455 1459 1464 1468 1471 1475 1477 1480 1483 1485 1488 1491 1494 1497 1500
1379 1385 1384 1390 1397 1397 1398 1402 1404 1404 1403 1406 1415 1417 1417 1427 1441 1445 1445 1442 1426 1403 1391 1392 1393 1390 1389 1390 1390 1390 1388 1390 1394 1398 1401 1406 1410 1413 1416 1420 1423 1425 1429 1433 1436 1440 1443 1448 1452 1456 1460 1464 1467 1471 1474 1476 1479 1482 1484 1487 1490 1493 1497
1382 1380 1370 1372 1380 1385 1392 1398 1398 1402 1405 1409 1421 1425 1414 1413 1424 1430 1436 1441 1423 1394 1382 1383 1383 1383 1382 1381 1384 1386 1384 1385 1389 1391 1394 1399 1403 1407 1411 1414 1418 1421 1425 1428 1432 1436 1441 1445 1448 1451 1454 1458 1463 1466 1469 1472 1475 1477 1480 1483 1486 1490 1493
1378 1370 1360 1360 1367 1371 1380 1387 1387 1393 1400 1406 1420 1428 1418 1413 1416 1415 1423 1434 1417 1388 1377 1378 1377 1377 1375 1375 1378 1380 1380 1383 1385 1387 1391 1394 1398 1401 1406 1409 1413 1417 1420 1424 1428 1431 1436 1439 1442 1446 1449 1453 1457 1461 1464 1468 1471 1473 1476 1479 1483 1486 1489
1372 1364 1357 1354 1357 1366 1377 1380 1380 1387 1393 1395 1403 1409 1408 1411 1415 1413 1423 1431 1412 1384 1373 1374 1374 1372 1371 1371 1371 1373 1376 1378 1381 1384 1387 1391 1394 1397 1401 1404 1408 1412 1417 1421 1425 1429 1431 1434 1438 1441 1444 1447 1452 1456 1460 1463 1466 1469 1473 1477 1480 1483 1485
1391 1382 1376 1369 1362 1365 1373 1376 1376 1380 1384 1389 1395 1398 1401 1408 1408 1407 1419 1425 1405 1381 1372 1372 1372 1371 1371 1369 1368 1369 1371 1373 1376 1379 1381 1386 1390 1393 1397 1400 1405 1410 1415 1419 1423 1425 1428 1432 1435 1436 1439 1443 1446 1450 1454 1457 1461 1466 1470 1473 1476 1478 1481
1402 1395 1387 1379 1370 1367 1369 1371 1373 1374 1378 1385 1393 1399 1407 1411 1404 1400 1408 1411 1397 1381 1375 1374 1373 1372 1372 1369 1367 1369 1370 1370 1372 1374 1377 1381 1384 1389 1393 1398 1403 1408 1412 1416 1419 1422 1425 1429 1433 1434 1436 1439 1442 1445 1449 1453 1457 1462 1466 1470 1472 1474 1477
1382 1380 1372 1364 1363 1367 1370 1370 1371 1372 1373 1377 1385 1396 1402 1401 1401 1402 1399 1395 1394 1388 1380 1376 1373 1372 1373 1371 1369 1370 1370 1370 1370 1370 1373 1376 1380 1385 1390 1395 1401 1405 1408 1413 1416 1419 1422 1425 1429 1431 1432 1434 1437 1441 1445 1449 1453 1458 1462 1466 1468 1470 1472
1364 1365 1362 1357 1358 1363 1365 1366 1369 1371 1370 1372 1379 1388 1388 1387 1399 1406 1393 1386 1394 1390 1380 1378 1375 1372 1372 1370 1368 1369 1370 1371 1371 1369 1370 1373 1378 1383 1388 1392 1397 1401 1405 1409 1412 1416 1419 1422 1426 1429 1430 1432 1435 1438 1442 1446 1450 1454 1458 1461 1464 1466 1469
1357 1357 1358 1355 1356 1358 1358 1360 1364 1367 1368 1371 1375 1377 1376 1380 1393 1396 1386 1386 1392 1385 1377 1374 1372 1369 1369 1366 1365 1366 1368 1371 1372 1372 1373 1376 1379 1384 1388 1391 1394 1398 1403 1407 1410 1413 1416 1420 1423 1426 1429 1431 1433 1436 1439 1442 1446 1449 1453 1456 1459 1463 1465
1353 1354 1355 1354 1354 1356 1356 1355 1357 1360 1364 1366 1368 1370 1371 1374 1380 1380 1379 1384 1385 1377 1371 1368 1363 1363 1364 1363 1362 1364 1367 1370 1372 1375 1377 1379 1381 1384 1386 1389 1392 1397 1400 1404 1407 1411 1413 1416 1420 1422 1425 1427 1429 1432 1434 1438 1442 1445 1448 1451 1454 1458 1460
1351 1348 1350 1352 1354 1355 1356 1354 1351 1353 1358 1361 1364 1367 1368 1372 1376 1373 1374 1381 1380 1369 1363 1361 1360 1360 1361 1363 1363 1362 1365 1369 1371 1375 1379 1381 1384 1386 1388 1390 1393 1396 1399 1402 1405 1408 1410 1413 1415 1418 1420 1422 1425 1427 1430 1433 1436 1440 1443 1446 1449 1452 1454
1355 1345 1348 1352 1351 1354 1358 1355 1350 1350 1355 1359 1361 1362 1363 1367 1372 1373 1375 1380 1377 1365 1359 1359 1359 1359 1361 1364 1364 1363 1365 1367 1370 1374 1378 1381 1384 1386 1387 1389 1391 1394 1396 1399 1401 1404 1407 1409 1411 1414 1416 1418 1421 1424 1426 1428 1431 1435 1438 1440 1443 1446 1449
1357 1347 1347 1348 1353 1365 1363 1349 1345 1349 1352 1354 1354 1354 1354 1355 1361 1370 1375 1373 1366 1360 1359 1361 1361 1361 1362 1362 1362 1363 1364 1365 1368 1373 1376 1379 1381 1383 1384 1385 1388 1390 1392 1394 1397 1399 1402 1404 1407 1409 1411 1414 1416 1418 1421 1423 1426 1431 1433 1435 1438 1440 1444
1355 1349 1344 1347 1361 1373 1358 1337 1336 1344 1346 1349 1352 1352 1351 1350 1351 1357 1360 1358 1356 1356 1357 1359 1360 1359 1358 1358 1359 1361 1363 1364 1367 1370 1374 1377 1381 1383 1384 1383 1384 1387 1389 1392 1394 1395 1398 1400 1402 1404 1407 1409 1411 1413 1416 1419 1422 1426 1428 1430 1433 1435 1438
1349 1346 1348 1365 1375 1362 1341 1331 1333 1335 1336 1341 1347 1348 1347 1348 1350 1350 1351 1352 1352 1353 1355 1356 1357 1357 1356 1356 1357 1359 1361 1363 1364 1366 1370 1373 1377 1380 1381 1380 1381 1383 1385 1388 1390 1392 1395 1397 1398 1401 1403 1405 1407 1409 1412 1415 1418 1420 1422 1424 1427 1429 1432
1345 1350 1359 1373 1367 1345 1333 1333 1332 1331 1335 1340 1346 1352 1352 1350 1351 1352 1354 1354 1351 1351 1353 1353 1355 1356 1355 1356 1358 1358 1361 1362 1362 1364 1365 1367 1371 1374 1376 1377 1377 1379 1381 1383 1385 1387 1390 1393 1395 1397 1399 1401 1403 1405 1408 1410 1412 1414 1417 1419 1421 1423 1425
1341 1352 1359 1358 1352 1347 1344 1341 1334 1333 1339 1342 1348 1359 1360 1352 1349 1350 1353 1355 1353 1352 1353 1352 1352 1352 1354 1358 1360 1360 1363 1364 1364 1364 1365 1366 1369 1371 1373 1375 1375 1377 1378 1379 1380 1383 1385 1389 1391 1393 1395 1397 1399 1401 1403 1405 1407 1409 1412 1413 1415 1416 1418
1340 1349 1359 1361 1364 1363 1352 1342 1334 1330 1334 1337 1341 1355 1363 1357 1350 1349 1351 1356 1356 1355 1354 1353 1351 1352 1360 1367 1365 1362 1364 1366 1365 1366 1365 1365 1367 1369 1371 1373 1373 1375 1376 1377 1379 1381 1382 1385 1387 1389 1391 1393 1394 1396 1398 1400 1402 1404 1405 1407 1409 1410 1410
1347 1354 1364 1366 1367 1361 1346 1338 1333 1329 1332 1334 1337 1357 1371 1362 1352 1351 1352 1356 1358 1357 1356 1355 1354 1359 1371 1375 1369 1363 1364 1365 1365 1365 1364 1363 1364 1365 1366 1368 1369 1370 1372 1373 1376 1378 1379 1380 1383 1385 1387 1388 1389 1390 1392 1394 1396 1398 1398 1400 1401 1403 1404
1352 1357 1365 1362 1355 1350 1342 1336 1333 1332 1331 1333 1349 1375 1380 1362 1353 1354 1354 1357 1360 1359 1358 1359 1360 1368 1375 1375 1369 1365 1364 1364 1364 1364 1363 1363 1363 1363 1362 1362 1363 1365 1367 1368 1369 1371 1372 1374 1377 1379 1381 1382 1383 1384 1386 1388 1389 1390 1391 1392 1394 1396 1399
1359 1359 1367 1365 1355 1347 1341 1337 1335 1333 1334 1344 1366 1381 1372 1358 1357 1357 1355 1358 1360 1360 1361 1362 1365 1370 1372 1371 1369 1366 1363 1363 1362 1361 1361 1362 1362 1362 1362 1359 1358 1360 1363 1364 1365 1367 1369 1371 1373 1374 1376 1378 1378 1378 1380 1381 1381 1382 1384 1386 1389 1393 1396
1365 1361 1367 1372 1364 1349 1340 1339 1337 1337 1347 1363 1372 1368 1360 1357 1359 1358 1357 1359 1360 1360 1362 1364 1366 1369 1369 1368 1367 1365 1363 1363 1362 1361 1360 1361 1361 1362 1361 1360 1358 1358 1360 1362 1364 1365 1367 1368 1369 1370 1372 1372 1373 1373 1374 1375 1376 1378 1381 1384 1388 1391 1393
1374 1372 1375 1383 1378 1356 1342 1343 1345 1348 1358 1366 1363 1358 1358 1360 1358 1358 1360 1360 1360 1361 1361 1362 1364 1365 1364 1365 1365 1364 1364 1363 1362 1361 1360 1361 1362 1361 1361 1362 1360 1359 1360 1362 1364 1365 1364 1364 1365 1367 1368 1368 1368 1369 1370 1372 1374 1378 1381 1384 1386 1389 1391
1390 1391 1387 1384 1377 1360 1347 1347 1352 1355 1357 1357 1355 1357 1360 1361 1360 1360 1360 1360 1361 1361 1360 1360 1361 1361 1361 1363 1364 1364 1364 1363 1362 1362 1360 1360 1361 1360 1361 1361 1361 1361 1361 1361 1362 1363 1363 1363 1365 1367 1369 1370 1370 1369 1368 1370 1375 1378 1381 1385 1386 1387 1390
1393 1395 1389 1381 1374 1366 1357 1351 1352 1355 1356 1355 1355 1357 1359 1362 1363 1361 1361 1362 1363 1361 1360 1360 1360 1361 1363 1365 1365 1365 1364 1363 1362 1362 1360 1360 1360 1359 1359 1359 1360 1361 1361 1361 1361 1362 1362 1364 1365 1366 1368 1371 1374 1374 1371 1370 1372 1375 1380 1384 1386 1387 1389
1388 1385 1382 1379 1376 1374 1368 1359 1352 1354 1356 1356 1356 1358 1360 1363 1364 1363 1363 1364 1363 1362 1362 1361 1362 1365 1367 1367 1367 1367 1366 1364 1363 1362 1361 1360 1360 1359 1359 1358 1359 1360 1361 1361 1362 1363 1363 1364 1365 1365 1366 1367 1372 1378 1378 1370 1366 1369 1376 1382 1386 1389 1392
1391 1387 1381 1381 1382 1382 1378 1367 1355 1352 1355 1356 1357 1359 1362 1364 1365 1364 1364 1364 1365 1365 1365 1364 1366 1368 1368 1368 1369 1368 1367 1366 1364 1363 1362 1361 1360 1359 1359 1359 1359 1359 1360 1360 1361 1361 1362 1363 1363 1364 1365 1365 1370 1378 1379 1372 1364 1362 1368 1377 1387 1394 1400
1391 1388 1383 1383 1384 1383 1380 1372 1360 1353 1354 1356 1358 1361 1363 1364 1365 1365 1365 1366 1367 1367 1367 1368 1369 1369 1369 1370 1369 1369 1368 1368 1366 1365 1364 1363 1362 1360 1359 1358 1358 1358 1358 1358 1358 1357 1358 1360 1361 1362 1363 1366 1371 1376 1378 1376 1371 1366 1367 1375 1384 1393 1401
1390 1387 1384 1383 1382 1381 1380 1376 1366 1358 1356 1357 1359 1362 1363 1364 1365 1366 1367 1369 1369 1369 1370 1370 1369 1370 1371 1371 1370 1370 1370 1369 1368 1367 1365 1364 1364 1363 1361 1359 1358 1358 1358 1358 1357 1356 1357 1359 1360 1361 1362 1365 1370 1375 1379 1382 1382 1378 1377 1380 1383 1389 1397
1392 1389 1388 1387 1387 1386 1385 1381 1376 1368 1362 1359 1361 1363 1364 1366 1368 1369 1370 1371 1371 1371 1372 1372 1371 1371 1373 1373 1372 1372 1370 1370 1370 1368 1366 1365 1364 1364 1364 1363 1361 1360 1360 1361 1361 1359 1358 1359 1360 1360 1362 1365 1370 1376 1382 1387 1388 1386 1385 1387 1388 1389 1394
1392 1388 1388 1388 1389 1390 1388 1385 1382 1377 1370 1365 1364 1365 1366 1369 1371 1371 1372 1372 1373 1373 1374 1374 1374 1374 1374 1374 1373 1372 1372 1372 1371 1370 1368 1366 1364 1363 1364 1365 1364 1362 1361 1362 1364 1363 1362 1362 1362 1362 1362 1364 1370 1377 1383 1388 1390 1390 1390 1393 1394 1392 1393
1389 1387 1388 1389 1390 1391 1390 1387 1384 1382 1377 1371 1368 1368 1369 1371 1373 1374 1374 1374 1375 1375 1376 1376 1376 1376 1375 1375 1374 1374 1374 1373 1372 1372 1371 1369 1367 1366 1365 1365 1366 1365 1363 1361 1363 1366 1366 1366 1366 1366 1365 1366 1372 1379 1384 1388 1392 1393 1394 1395 1395 1393 1394
1386 1385 1386 1389 1391 1392 1391 1388 1387 1386 1382 1376 1373 1372 1373 1373 1374 1375 1375 1375 1377 1377 1377 1377 1378 1378 1377 1376 1375 1376 1375 1374 1373 1373 1374 1374 1373 1370 1367 1366 1367 1368 1365 1363 1365 1369 1371 1369 1369 1371 1372 1374 1378 1383 1387 1391 1394 1395 1395 1394 1393 1393 1395
Wind_Speed
15 13 12 14 11 5 4 9 12 8 6 5 3 4 4 3 5 5 5 6 4 3 5 5 8 13 16 17 19 21 26 35 35 32 34 37 39 40 41 43 44 45 48 49 50 51 51 51 50 50 50 49 48 47 46 45 44 43 42 41 41 42 42
19 19 14 15 16 10 4 6 8 3 4 7 4 4 5 4 6 5 6 8 5 4 4 6 8 10 14 15 14 15 19 27 31 32 36 40 42 44 44 44 45 46 47 49 50 51 51 51 51 51 50 49 48 47 46 46 45 44 43 41 41 42 43
16 18 14 12 15 16 10 5 5 6 7 8 6 4 6 6 7 5 6 8 6 6 4 7 12 10 12 14 14 14 14 18 28 36 41 43 45 45 45 46 48 48 48 49 50 51 51 51 50 50 49 49 48 47 46 45 45 44 43 42 42 43 43
13 12 10 9 9 12 12 9 7 7 6 6 6 5 4 5 6 5 6 7 5 6 5 8 12 12 12 13 14 16 14 17 29 37 40 44 45 44 46 49 51 51 52 52 52 52 52 51 50 48 48 48 48 47 46 45 44 43 43 43 43 44 44
11 10 9 10 9 9 11 10 10 8 4 3 5 6 6 6 5 4 5 6 5 5 6 7 8 9 12 12 13 15 15 20 33 40 42 45 47 47 49 50 51 52 53 53 53 52 51 49 47 46 47 48 48 48 47 46 45 44 45 45 44 44 45
8 8 11 14 14 12 11 10 11 10 5 4 5 7 8 8 7 4 4 5 6 5 6 8 9 9 9 11 12 12 14 21 33 41 44 45 47 48 49 51 51 52 53 53 52 50 48 47 46 46 47 48 49 49 48 47 45 45 46 46 46 45 45
8 8 12 18 19 17 13 11 11 10 7 6 6 5 5 6 7 6 4 5 6 6 7 8 9 9 9 12 13 12 16 22 29 36 41 43 47 49 50 51 51 51 53 53 50 48 48 48 48 48 48 49 50 50 48 47 46 46 46 46 46 46 45
9 10 9 16 20 17 13 11 11 11 10 9 7 5 4 5 6 6 6 7 7 6 8 7 7 9 8 11 16 17 18 23 28 33 37 40 45 49 50 51 51 51 50 48 46 46 47 48 48 49 50 50 50 49 48 47 47 47 46 46 46 46 47
7 9 7 10 17 15 9 9 11 14 15 13 10 7 4 5 9 8 6 6 7 5 7 7 7 7 6 6 13 18 19 23 27 29 35 43 47 49 51 50 49 47 44 42 43 45 46 47 48 49 50 50 50 49 48 47 47 47 46 46 46 47 48
9 11 7 5 9 11 8 9 12 16 18 17 12 7 5 6 9 9 7 6 6 5 11 14 15 12 7 4 5 10 16 23 27 26 33 43 47 49 49 47 44 43 40 41 44 45 46 47 48 49 49 49 49 48 48 47 46 46 46 46 46 48 49
9 9 8 4 4 9 13 14 15 15 16 18 13 7 8 7 4 6 8 7 7 7 9 16 18 14 9 6 1 3 5 13 19 25 35 44 48 48 46 44 43 42 41 42 44 46 47 49 49 49 49 49 48 47 47 47 46 46 45 46 47 48 49
13 8 8 8 8 9 14 17 18 17 15 16 15 12 12 7 4 6 9 7 8 11 9 9 12 11 8 8 5 8 10 7 8 21 36 43 45 44 43 43 45 44 43 44 46 48 49 49 49 49 48 48 47 47 47 46 46 45 45 46 47 48 49
18 15 12 13 13 12 13 16 18 19 19 17 15 15 14 9 7 9 8 6 7 10 11 10 9 7 6 9 12 12 16 15 13 20 30 34 36 36 37 40 43 44 45 47 47 48 49 49 48 47 46 46 46 46 47 47 46 46 45 46 47 48 49
18 20 18 16 15 14 13 15 17 17 19 21 20 16 12 11 10 11 9 9 8 8 10 10 9 9 7 7 12 14 15 20 21 22 26 30 33 35 37 41 45 47 47 47 48 48 47 47 48 47 47 47 48 48 48 48 48 47 46 47 48 49 50
14 19 20 19 18 17 14 12 16 18 18 20 20 17 12 9 8 9 9 9 9 7 7 8 7 7 8 5 7 11 12 17 25 24 24 28 30 32 35 39 43 44 42 41 43 46 46 46 47 47 47 48 49 49 49 49 49 48 47 48 49 51 52
6 13 19 21 20 18 17 16 15 18 16 14 13 14 14 12 10 8 8 8 8 7 6 5 7 5 7 6 6 9 12 13 21 25 26 29 32 35 38 40 40 39 39 40 42 43 45 46 47 47 47 48 49 50 50 50 50 49 49 49 51 52 53
4 7 15 22 19 15 16 17 13 10 10 10 11 11 13 16 13 7 5 6 6 5 5 6 7 6 6 7 8 10 10 9 13 20 27 31 33 35 40 42 42 42 41 41 41 40 41 43 44 45 47 49 51 52 52 52 51 50 50 51 52 54 54
5 7 9 12 14 13 12 11 9 9 9 10 10 9 9 11 11 9 8 8 6 4 5 7 9 9 10 13 14 15 15 13 11 12 17 23 27 34 40 41 42 44 43 40 36 33 35 38 39 42 47 49 51 52 53 53 52 51 52 52 53 55 55
4 4 4 5 9 9 6 6 8 12 13 11 9 8 7 4 2 5 10 10 6 2 1 2 2 3 10 13 13 14 18 22 24 23 23 22 23 32 43 44 43 44 43 40 37 33 33 36 36 39 45 47 49 51 53 53 53 53 54 54 55 56 57
4 4 4 5 5 2 3 3 7 7 7 7 5 5 5 3 7 5 1 1 2 6 7 7 10 11 8 4 3 5 11 18 25 29 31 30 26 26 35 43 46 49 47 42 38 35 35 37 37 39 42 44 47 50 52 53 54 55 56 56 56 57 58
5 5 4 3 3 3 4 4 3 3 3 2 3 2 2 4 7 8 6 7 8 8 8 11 16 17 12 6 6 5 5 9 14 18 21 23 21 20 24 31 37 43 45 42 37 36 38 39 38 39 39 42 47 50 51 53 55 56 58 59 58 58 59
1 3 3 3 4 5 5 3 1 3 7 9 7 5 3 5 6 8 10 9 10 8 7 11 16 15 9 4 7 16 21 20 17 18 19 21 24 25 25 25 28 31 34 35 34 36 39 41 41 40 40 43 48 50 51 53 56 57 59 60 61 61 61
2 4 2 5 4 3 3 3 2 0 6 10 7 3 3 5 6 10 12 11 9 8 7 10 12 10 6 2 7 20 28 26 23 23 23 23 24 28 28 27 27 29 34 37 35 36 39 40 40 41 41 44 48 52 53 54 56 58 60 62 63 63 63
2 5 1 3 1 1 2 0 1 2 7 11 5 2 1 4 6 13 14 11 9 9 10 12 10 6 3 3 11 22 26 23 23 20 19 21 20 20 25 27 24 24 33 43 43 42 42 40 39 42 43 45 48 51 53 56 58 60 62 64 65 65 64
4 4 1 2 1 1 3 6 8 6 8 10 3 4 1 3 8 15 16 12 12 14 14 12 7 3 4 7 13 20 22 21 21 17 13 12 12 12 13 21 24 20 27 41 46 44 41 37 37 41 43 46 49 51 53 55 58 61 64 64 63 63 62
4 4 2 1 2 5 4 10 14 12 7 4 2 3 8 10 12 16 18 16 14 16 16 14 10 8 10 14 16 18 18 17 15 13 12 8 4 4 8 4 9 11 22 38 45 42 37 35 37 41 44 47 49 50 54 56 57 59 61 62 60 59 60
3 3 3 2 2 5 4 6 8 8 2 3 3 8 12 14 16 17 18 17 15 15 17 16 15 15 17 20 19 17 15 14 13 11 10 9 5 5 7 7 5 5 15 29 35 32 29 30 34 38 42 48 51 51 51 53 55 56 55 56 56 56 55
3 2 2 1 5 9 5 5 2 1 5 9 13 13 10 12 16 17 18 18 16 17 18 18 19 20 21 22 21 18 15 12 12 11 7 5 6 6 7 7 3 3 9 17 20 21 21 23 27 27 25 30 40 49 51 50 51 52 52 51 52 52 51
1 3 5 6 14 22 13 11 15 12 14 19 21 20 15 14 15 18 19 19 18 18 19 20 22 22 21 21 21 19 17 13 10 10 8 6 6 6 6 7 8 9 7 9 13 15 16 19 24 27 25 22 25 32 42 47 47 43 42 43 44 44 45
3 4 4 7 16 29 23 6 22 22 20 22 24 24 22 20 19 21 22 22 23 22 21 22 24 22 20 21 21 19 17 14 10 7 6 4 5 6 6 6 8 11 13 15 16 16 16 17 19 23 27 26 22 19 25 39 45 43 40 40 38 37 39
4 2 5 7 10 25 30 7 21 26 24 26 27 26 25 23 23 25 25 25 26 26 24 24 25 23 21 21 22 21 20 19 16 12 7 4 4 5 6 6 6 7 12 16 18 17 16 16 17 18 19 19 16 14 20 31 41 47 47 43 39 34 31
3 3 5 7 9 22 32 16 15 26 26 28 29 27 26 25 25 26 26 26 26 26 26 25 25 25 24 23 22 23 22 21 20 18 15 10 5 3 3 6 7 6 6 9 12 14 12 9 9 12 14 13 13 16 20 24 32 40 43 42 37 32 28
5 4 4 8 10 15 25 23 14 23 28 29 29 27 26 26 26 26 26 26 26 26 25 25 26 26 26 24 23 23 22 21 19 18 18 15 10 8 6 3 4 5 4 5 8 10 8 7 8 9 11 17 20 20 18 17 20 27 30 31 31 31 31
2 1 4 8 6 4 13 20 18 19 25 29 29 28 27 26 25 25 26 26 26 26 25 25 26 25 24 23 23 23 23 22 20 18 18 17 14 12 10 10 9 7 5 3 3 5 7 9 13 15 13 15 22 24 20 15 13 16 20 24 29 34 36
4 7 10 10 6 3 8 14 15 16 20 27 30 28 28 27 25 25 26 26 25 25 24 24 25 25 23 22 22 23 23 23 23 21 20 19 18 15 11 10 13 14 15 12 8 9 12 13 14 16 14 13 18 20 18 16 15 17 23 29 34 37 38
8 12 14 12 6 2 4 9 12 13 17 24 27 26 26 26 25 25 26 26 25 24 23 23 23 23 22 22 22 22 22 22 22 23 23 20 19 18 16 13 12 11 13 14 14 14 17 20 21 21 19 17 18 18 17 20 24 29 33 37 37 37 36
12 18 18 12 7 7 8 10 10 10 15 21 24 24 24 24 24 24 25 24 24 23 23 22 21 20 20 21 21 21 21 22 21 21 23 22 19 18 18 16 15 14 14 16 16 16 19 23 23 22 20 21 23 24 25 28 32 33 34 34 34 32 31
Wind_Direction
223 214 194 200 214 216 184 193 215 225 195 197 226 246 254 244 234 235 232 242 244 248 261 241 208 194 188 189 186 186 190 192 194 191 190 194 195 195 193 192 195 199 201 202 203 204 205 205 207 207 207 206 206 207 208 209 210 212 214 214 214 213 212
216 219 204 198 211 217 192 192 207 213 221 217 199 218 239 237 239 227 220 240 237 212 242 252 237 206 188 189 185 187 188 183 185 189 192 195 196 197 197 197 199 200 201 203 204 205 206 207 208 208 207 206 206 207 209 209 208 210 213 214 214 213 212
203 211 213 202 207 214 220 218 183 177 215 213 183 193 206 215 241 240 234 246 227 200 203 210 221 210 188 191 188 189 189 174 177 185 190 192 194 197 198 199 203 203 202 204 205 205 206 207 208 208 206 205 205 207 209 210 210 211 213 214 214 214 213
185 191 210 204 196 205 218 235 220 204 209 191 181 200 201 207 227 224 233 248 234 217 204 194 210 207 192 191 187 191 193 176 176 183 187 190 193 195 197 200 203 204 205 207 208 207 207 207 207 206 205 205 205 206 208 210 211 210 212 214 214 214 214
193 190 200 193 183 188 204 219 223 224 215 163 175 202 208 212 216 199 209 233 246 234 206 200 218 215 204 200 188 190 194 180 179 185 188 190 193 196 197 200 203 204 207 210 210 210 208 207 206 205 205 206 206 206 207 208 209 209 210 213 214 214 213
216 204 187 182 184 189 196 207 218 222 212 175 191 214 217 212 215 210 204 237 256 251 221 210 220 224 210 200 190 191 197 189 185 189 191 190 192 196 197 200 203 203 206 210 210 209 207 205 205 205 205 205 205 205 206 207 209 210 211 211 213 214 213
247 231 192 180 184 191 197 205 213 217 217 205 205 218 213 208 222 216 210 250 255 243 241 223 216 230 220 195 187 184 195 197 192 193 194 190 191 195 197 200 202 203 206 209 208 206 205 205 204 205 204 203 203 204 205 207 209 211 212 212 212 214 214
270 268 228 185 180 187 202 206 202 208 219 220 220 221 190 194 217 198 192 237 238 216 232 236 221 231 230 200 186 179 186 196 197 197 194 191 192 194 196 199 201 202 206 208 205 202 203 204 203 203 203 202 202 202 204 207 210 212 213 213 212 213 214
246 260 258 200 185 186 200 203 195 203 212 217 228 233 204 204 218 199 182 231 240 204 211 251 268 245 231 207 189 185 185 192 200 199 190 189 192 193 195 198 198 199 201 202 201 201 202 200 200 200 200 199 199 201 203 207 210 212 213 213 212 212 214
207 222 231 205 186 184 194 204 201 200 202 208 222 223 207 219 223 211 201 223 255 223 194 219 249 253 254 268 217 201 203 204 208 202 186 184 188 190 192 194 193 195 198 199 199 201 201 199 199 200 199 198 199 200 203 206 208 210 211 212 212 213 214
204 219 226 217 190 185 191 199 206 207 202 203 208 215 221 214 191 223 227 215 240 255 207 208 228 238 239 242 232 88 188 207 208 197 184 181 184 187 188 188 190 193 196 200 201 202 202 201 200 201 199 198 199 200 202 204 206 207 209 210 211 213 214
211 218 230 234 234 215 196 192 200 212 214 208 204 213 226 211 164 242 246 204 218 250 249 231 233 234 225 214 180 103 106 126 167 178 179 178 179 181 182 183 188 193 198 202 204 204 204 201 199 200 200 199 199 200 201 202 203 205 207 209 211 213 214
216 219 229 233 237 240 218 196 193 203 212 220 221 219 220 205 201 241 240 187 204 237 241 242 237 219 216 218 203 162 134 128 133 150 165 171 172 174 178 181 183 188 196 201 202 202 203 201 199 199 200 199 199 200 201 202 202 204 206 208 210 212 214
209 216 228 233 238 247 234 206 195 198 206 215 224 231 225 207 212 234 229 206 215 231 234 240 226 192 188 208 201 182 150 137 140 146 156 165 170 173 175 177 179 186 193 196 197 199 199 199 198 199 199 200 200 201 202 202 202 203 205 208 210 211 213
203 208 219 230 238 245 248 225 201 201 208 211 216 226 232 228 224 225 224 223 231 234 224 238 243 196 168 161 186 201 193 157 148 154 159 163 169 174 174 175 178 185 192 197 200 201 201 200 199 199 201 201 202 202 203 203 203 202 204 208 210 211 213
209 204 208 219 232 241 251 249 222 206 209 212 211 210 212 223 231 223 220 225 236 240 221 228 261 228 176 176 179 199 216 187 155 156 163 168 175 179 180 182 186 189 193 198 202 203 204 205 204 204 205 204 203 203 203 205 204 202 204 208 210 211 213
222 225 212 209 214 229 242 245 239 222 211 213 219 211 200 206 215 217 218 219 218 211 183 191 228 224 190 193 185 181 203 204 169 166 172 177 183 187 187 189 193 196 196 197 199 202 205 207 207 208 208 205 204 205 206 206 204 202 204 208 211 211 212
200 227 233 211 201 216 231 230 238 249 240 230 230 228 211 206 210 210 206 214 217 191 171 189 210 220 219 214 206 204 212 217 216 214 201 189 189 193 195 196 197 199 201 200 200 202 206 208 210 210 209 208 208 208 207 205 203 203 206 208 211 212 212
165 188 231 230 213 221 224 197 210 235 244 246 246 248 253 254 253 232 219 218 218 187 152 177 187 267 253 233 217 218 227 231 230 231 231 227 215 201 197 199 201 201 201 202 203 204 207 210 214 213 210 210 211 209 206 204 203 204 206 208 211 212 213
154 164 192 221 230 302 341 217 203 216 245 261 259 264 286 8 60 60 333 290 73 70 61 59 45 23 355 304 250 219 232 242 236 226 223 229 233 220 204 200 200 200 200 201 203 206 207 210 213 215 214 213 212 209 207 205 205 205 205 208 211 213 214
174 179 192 240 275 305 305 275 225 144 124 129 139 152 322 13 71 87 71 40 41 54 55 44 36 31 28 16 353 343 323 287 265 250 238 234 240 239 224 212 204 202 203 205 206 206 206 208 212 214 215 216 213 210 208 206 206 206 206 207 210 214 215
109 148 176 222 249 237 229 240 336 75 101 108 114 108 43 4 30 77 88 66 43 41 43 41 41 39 35 11 339 344 346 341 329 316 303 283 266 256 251 243 229 217 212 211 212 211 207 208 212 213 213 215 213 210 208 208 207 207 207 207 210 214 216
49 86 165 216 217 219 213 187 212 295 96 98 92 61 14 335 1 56 77 77 56 40 37 47 56 53 39 309 313 340 346 347 344 338 335 324 292 263 255 254 247 240 234 225 219 216 212 211 213 213 211 213 212 210 209 209 209 208 209 209 210 213 217
41 86 93 258 192 193 280 177 185 201 107 96 99 194 271 327 17 57 70 77 70 58 53 56 64 67 50 308 321 342 348 349 350 347 344 342 321 284 262 253 251 250 238 225 216 213 215 217 217 214 211 211 211 211 211 210 210 210 211 211 211 212 215
1 71 67 314 45 283 311 19 14 9 77 91 131 205 185 28 48 60 65 71 72 69 70 72 77 75 26 351 345 353 354 353 359 2 351 340 332 322 291 258 251 249 230 217 212 212 217 221 219 214 210 210 211 212 212 211 212 214 214 213 212 211 213
341 30 38 7 328 307 352 43 28 19 50 113 155 65 55 63 71 64 61 64 65 69 77 80 82 71 40 25 17 11 6 3 8 14 13 2 322 346 9 317 258 243 220 213 211 212 218 227 227 220 213 211 211 212 212 212 214 217 216 213 210 210 211
340 353 20 73 313 309 4 51 25 18 53 180 126 73 56 62 73 70 63 60 57 63 70 66 62 58 47 41 37 27 18 15 11 13 22 20 346 318 348 13 51 131 195 206 208 211 216 222 224 220 216 214 213 212 213 215 216 215 214 212 210 209 207
24 331 328 357 304 313 359 80 73 60 111 107 98 93 71 57 68 72 65 61 62 68 67 58 54 52 47 43 42 38 35 27 11 6 8 359 341 327 315 317 346 119 178 194 202 211 214 211 213 217 223 225 221 217 217 217 215 213 213 212 208 204 200
334 266 283 317 322 324 345 88 102 92 94 94 91 92 83 64 69 76 70 66 70 71 67 60 56 53 49 48 48 46 46 43 28 17 11 347 318 310 301 289 284 279 260 225 214 220 224 221 220 223 230 241 246 236 223 214 207 203 201 198 193 187 185
304 272 317 356 344 330 328 82 110 98 94 96 89 87 86 77 74 77 74 72 72 70 67 66 62 58 56 55 56 56 55 53 46 32 16 352 316 300 287 266 255 258 260 255 245 240 242 244 240 232 228 235 252 252 221 204 198 191 179 171 165 161 162
321 326 3 10 349 326 319 332 108 97 92 96 92 89 90 86 78 76 74 74 74 71 70 71 68 64 62 60 59 60 61 59 55 47 34 2 308 294 289 275 255 247 252 251 245 239 242 249 252 246 237 232 227 207 184 183 186 184 177 168 160 156 160
314 291 330 343 342 329 322 329 100 102 95 94 93 91 92 88 82 79 77 75 75 72 69 70 70 65 62 63 63 61 59 59 60 56 47 34 14 344 311 279 262 255 252 245 238 235 234 234 235 233 225 208 182 164 157 158 163 166 167 170 171 173 181
310 285 321 347 357 344 333 341 45 92 98 96 94 91 89 86 84 82 79 76 75 74 71 70 71 67 62 60 61 59 55 52 53 55 52 47 43 41 34 4 282 265 248 229 232 230 213 184 167 165 182 192 183 165 148 145 149 152 155 163 170 173 178
299 328 3 355 1 348 330 342 17 68 91 96 95 91 87 86 85 84 82 78 77 77 74 72 72 70 64 59 57 56 55 52 50 53 57 58 58 56 60 69 72 74 86 104 203 186 152 151 158 150 148 172 178 170 161 156 153 150 153 158 160 161 164
276 292 316 325 330 335 335 349 16 53 79 90 92 90 89 88 87 85 84 81 77 76 74 73 73 71 67 63 58 55 56 57 56 55 56 59 61 62 70 86 88 92 99 94 93 127 134 136 145 142 133 144 160 165 172 179 175 166 166 165 161 158 160
270 277 295 299 275 233 29 29 39 55 76 87 89 89 89 88 85 84 84 81 78 77 75 73 73 71 69 66 60 56 56 56 56 55 53 55 62 69 77 83 76 80 100 101 94 107 122 123 123 121 117 125 139 147 155 166 170 169 169 167 161 158 159
266 276 289 286 231 164 113 82 69 68 79 88 90 89 89 87 84 83 81 78 77 77 75 73 72 70 70 69 64 58 55 53 54 56 54 51 56 68 80 86 78 68 80 96 102 110 117 118 120 124 128 135 146 152 156 162 165 166 166 164 160 158 160